Starlink 32473

operational
NORAD ID: 62049 Int'l Des: 2024-216 Owner: SPXS Country: US Constellation: starlink
LEOCIRCULAR

About Starlink 32473

Description loading...

Live Position

Loading 3D Globe...

Upcoming Passes

Altitude History

Altitude vs Time

uPlot chart will show altitude changes over time

Two-Line Element Set

1 62049U 24216T 25351.03308700 .00025993 00000-0 95042-3 0 9994
2 62049 43.0034 3.1884 0001073 246.4430 113.6309 15.27591800 60079
Epoch: Dec 17, 2025 • Age: 19 hours

Current Status

Altitude 485.7 km
Velocity 7.63 km/s
Sub-Earth Point 38.86°N, 90.91°E
Launch Date Nov 21, 2024
Age 1 years
Type internet

Technical Details

Classification Payload
Mass 730.00 kg
Dry Mass 700.00 kg
Total Mass 730.00 kg
Length 0.30 m
Diameter 4.10 m
Span 29.00 m
Shape Box + pan
Manufacturer SPXS
Bus Type Starlink V2M
Phase Status In Orbit
Owner/State SPXS/US

Large Constellations

Loading constellations...